UAL23 KLAX-PHNL

Flight info

Callsign UAL23
Flight time 5h 55m
Altitude 30000
Route SUMMR2 DINTY DUETS 3335N12855W DADIE/N0456F320 R576 DUSAC/N0456F340 R576 DENNS MAGGI3
Aircraft B739/M-SDE2E3FGHIRWXY/LB1

Departure

Time 2026-04-22 14:53
Airport Los Angeles International Airport (KLAX)

Arrival

Time 2026-04-22 20:49
Airport Daniel K. Inouye International Airport (PHNL)
Time Latitude Longitude Altitude Speed Heading
2026-04-22 14:26 33.94115 -118.40027 116 ft 0 kts 95°
2026-04-22 14:29 33.94117 -118.40042 117 ft 2 kts 108°
2026-04-22 14:29 33.94123 -118.40059 117 ft 2 kts 122°
2026-04-22 14:29 33.94132 -118.40073 117 ft 2 kts 136°
2026-04-22 14:29 33.94144 -118.40084 117 ft 2 kts 150°
2026-04-22 14:30 33.94158 -118.40091 117 ft 2 kts 165°
2026-04-22 14:30 33.94167 -118.40093 117 ft 0 kts 173°
2026-04-22 14:30 33.94172 -118.40094 117 ft 0 kts 174°
2026-04-22 14:34 33.94165 -118.40093 116 ft 1 kts 175°
2026-04-22 14:34 33.94152 -118.40092 117 ft 2 kts 175°
2026-04-22 14:34 33.94119 -118.40087 117 ft 6 kts 172°
2026-04-22 14:34 33.94076 -118.40080 117 ft 0 kts 173°
2026-04-22 14:35 33.94054 -118.40076 117 ft 5 kts 173°
2026-04-22 14:35 33.94040 -118.40075 117 ft 0 kts 174°
2026-04-22 14:44 33.94030 -118.40073 117 ft 2 kts 175°
2026-04-22 14:44 33.94011 -118.40071 118 ft 4 kts 174°
2026-04-22 14:45 33.93969 -118.40048 117 ft 9 kts 128°
2026-04-22 14:45 33.93967 -118.39951 115 ft 14 kts 84°
2026-04-22 14:45 33.93968 -118.39938 115 ft 1 kts 84°
2026-04-22 14:45 33.93971 -118.39911 115 ft 0 kts 84°
2026-04-22 14:46 33.93973 -118.39892 114 ft 5 kts 83°
2026-04-22 14:46 33.93980 -118.39820 113 ft 11 kts 83°
2026-04-22 14:46 33.93993 -118.39697 110 ft 17 kts 83°
2026-04-22 14:46 33.94010 -118.39532 110 ft 21 kts 81°
2026-04-22 14:47 33.94030 -118.39335 107 ft 22 kts 83°
2026-04-22 14:47 33.94047 -118.39162 106 ft 19 kts 83°
2026-04-22 14:47 33.94028 -118.39028 104 ft 15 kts 139°
2026-04-22 14:47 33.93992 -118.38900 103 ft 19 kts 82°
2026-04-22 14:48 33.94010 -118.38722 103 ft 23 kts 83°
2026-04-22 14:48 33.94031 -118.38515 103 ft 24 kts 84°
2026-04-22 14:48 33.94043 -118.38403 101 ft 0 kts 84°
2026-04-22 14:48 33.94044 -118.38386 101 ft 3 kts 89°
2026-04-22 14:49 33.94048 -118.38343 100 ft 10 kts 82°
2026-04-22 14:49 33.94058 -118.38256 100 ft 9 kts 83°
2026-04-22 14:50 33.94066 -118.38180 100 ft 8 kts 83°
2026-04-22 14:50 33.94070 -118.38139 100 ft 1 kts 84°
2026-04-22 14:50 33.94071 -118.38127 100 ft 1 kts 84°
2026-04-22 14:50 33.94072 -118.38111 100 ft 0 kts 84°
2026-04-22 14:51 33.94073 -118.38110 100 ft 1 kts 84°
2026-04-22 14:51 33.94077 -118.38065 100 ft 0 kts 84°
2026-04-22 14:51 33.94076 -118.38053 100 ft 3 kts 101°
2026-04-22 14:52 33.94060 -118.38024 100 ft 5 kts 142°
2026-04-22 14:52 33.94016 -118.38007 100 ft 7 kts 172°
2026-04-22 14:52 33.93982 -118.38048 100 ft 9 kts 263°
2026-04-22 14:52 33.93979 -118.38081 100 ft 5 kts 264°
2026-04-22 14:53 33.93942 -118.38434 102 ft 87 kts 263°
2026-04-22 14:53 33.93834 -118.39497 110 ft 166 kts 263°
2026-04-22 14:53 33.93681 -118.41065 567 ft 197 kts 264°
2026-04-22 14:53 33.93528 -118.42753 1279 ft 216 kts 264°
2026-04-22 14:54 33.93352 -118.44452 2619 ft 208 kts 264°
2026-04-22 14:54 33.93166 -118.46227 3083 ft 227 kts 264°
2026-04-22 14:54 33.93039 -118.47590 3461 ft 238 kts 265°
2026-04-22 14:54 33.92889 -118.49362 4288 ft 236 kts 266°
2026-04-22 14:55 33.92729 -118.51334 5078 ft 239 kts 266°
2026-04-22 14:55 33.92571 -118.53268 5988 ft 235 kts 266°
2026-04-22 14:55 33.92409 -118.55221 6780 ft 238 kts 266°
2026-04-22 14:55 33.92245 -118.57201 7567 ft 240 kts 266°
2026-04-22 14:56 33.92080 -118.59184 8394 ft 240 kts 266°
2026-04-22 14:56 33.91915 -118.61176 9135 ft 245 kts 265°
2026-04-22 14:56 33.91772 -118.63276 9643 ft 259 kts 268°
2026-04-22 14:56 33.91727 -118.65458 10307 ft 267 kts 270°
2026-04-22 14:57 33.91733 -118.67753 10805 ft 281 kts 270°
2026-04-22 14:57 33.91740 -118.69048 11085 ft 288 kts 271°
2026-04-22 14:57 33.91746 -118.71512 11587 ft 301 kts 270°
2026-04-22 14:57 33.91741 -118.74091 11937 ft 318 kts 270°
2026-04-22 14:58 33.91731 -118.76796 11961 ft 327 kts 270°
2026-04-22 14:58 33.91718 -118.79582 12325 ft 337 kts 270°
2026-04-22 14:58 33.91703 -118.82323 13368 ft 330 kts 270°
2026-04-22 14:58 33.91710 -118.85098 14087 ft 333 kts 271°
2026-04-22 14:59 33.91779 -118.87857 14811 ft 335 kts 272°
2026-04-22 14:59 33.91880 -118.90655 15481 ft 339 kts 272°
2026-04-22 14:59 33.91983 -118.93508 16188 ft 341 kts 272°
2026-04-22 14:59 33.92080 -118.96337 16858 ft 344 kts 271°
2026-04-22 15:00 33.92255 -118.99201 17486 ft 347 kts 276°
2026-04-22 15:00 33.92764 -119.02026 18131 ft 351 kts 285°
2026-04-22 15:00 33.93761 -119.04737 18731 ft 358 kts 294°
2026-04-22 15:00 33.95023 -119.07344 19368 ft 361 kts 297°
2026-04-22 15:01 33.96370 -119.09921 19903 ft 366 kts 298°
2026-04-22 15:01 33.97732 -119.12475 20526 ft 368 kts 298°
2026-04-22 15:01 33.99131 -119.15078 21021 ft 372 kts 300°
2026-04-22 15:01 34.00726 -119.17544 21562 ft 378 kts 306°
2026-04-22 15:02 34.02605 -119.19843 22028 ft 386 kts 311°
2026-04-22 15:02 34.04670 -119.21918 22447 ft 394 kts 316°
2026-04-22 15:02 34.06887 -119.23893 22984 ft 397 kts 317°
2026-04-22 15:02 34.09140 -119.25803 23501 ft 399 kts 318°
2026-04-22 15:03 34.11436 -119.27725 24030 ft 400 kts 318°
2026-04-22 15:03 34.13716 -119.29640 24379 ft 405 kts 318°
2026-04-22 15:03 34.16012 -119.31583 24984 ft 404 kts 317°
2026-04-22 15:03 34.18337 -119.33562 25294 ft 410 kts 318°
2026-04-22 15:04 34.20655 -119.35545 25705 ft 413 kts 317°
2026-04-22 15:04 34.23001 -119.37561 26265 ft 413 kts 317°
2026-04-22 15:04 34.25340 -119.39571 26898 ft 410 kts 317°
2026-04-22 15:04 34.27418 -119.41359 27435 ft 408 kts 317°
2026-04-22 15:05 34.28406 -119.42210 27707 ft 407 kts 317°
2026-04-22 15:05 34.30683 -119.44173 28418 ft 401 kts 317°
2026-04-22 15:05 34.32898 -119.46162 29041 ft 394 kts 313°
2026-04-22 15:05 34.34897 -119.48399 29444 ft 389 kts 306°
2026-04-22 15:06 34.36049 -119.50078 29774 ft 383 kts 300°
2026-04-22 15:06 34.37892 -119.53673 30387 ft 375 kts 292°
2026-04-22 15:06 34.38978 -119.56503 30856 ft 370 kts 287°
2026-04-22 15:06 34.39764 -119.59421 31268 ft 365 kts 279°
2026-04-22 15:07 34.40211 -119.62405 31705 ft 360 kts 273°
2026-04-22 15:07 34.40319 -119.65444 32153 ft 356 kts 266°
2026-04-22 15:07 34.40183 -119.68367 32612 ft 353 kts 264°
2026-04-22 15:07 34.39952 -119.71343 32937 ft 352 kts 262°
2026-04-22 15:08 34.39475 -119.77258 32973 ft 351 kts 263°
2026-04-22 15:08 34.39034 -119.83107 32981 ft 351 kts 263°
2026-04-22 15:09 34.38600 -119.89069 32984 ft 352 kts 263°
2026-04-22 15:09 34.38177 -119.94998 32979 ft 350 kts 264°
2026-04-22 15:10 34.37751 -120.00868 32982 ft 351 kts 263°
2026-04-22 15:10 34.37319 -120.06744 32981 ft 352 kts 263°
2026-04-22 15:11 34.36888 -120.12610 32987 ft 351 kts 264°
2026-04-22 15:11 34.36457 -120.18469 32985 ft 351 kts 263°
2026-04-22 15:12 34.36022 -120.24350 32986 ft 351 kts 264°
2026-04-22 15:12 34.35585 -120.30208 32985 ft 351 kts 264°
2026-04-22 15:13 34.35139 -120.36119 32990 ft 352 kts 263°
2026-04-22 15:13 34.34690 -120.41993 32989 ft 350 kts 262°
2026-04-22 15:14 34.33788 -120.47707 32991 ft 350 kts 252°
2026-04-22 15:14 34.31855 -120.53156 32989 ft 354 kts 246°
2026-04-22 15:15 34.29720 -120.58417 32386 ft 347 kts 246°
2026-04-22 15:15 34.28657 -120.61054 31447 ft 355 kts 246°
2026-04-22 15:15 34.27580 -120.63751 30539 ft 361 kts 248°
2026-04-22 15:16 34.26499 -120.66469 30232 ft 355 kts 246°
2026-04-22 15:16 34.25435 -120.69142 30196 ft 359 kts 247°
2026-04-22 15:16 34.23237 -120.74680 30190 ft 367 kts 246°
2026-04-22 15:17 34.21036 -120.80208 30191 ft 367 kts 247°
2026-04-22 15:17 34.18823 -120.85760 30191 ft 367 kts 246°
2026-04-22 15:18 34.16621 -120.91283 30193 ft 368 kts 246°
2026-04-22 15:18 34.14394 -120.96864 30193 ft 368 kts 246°
2026-04-22 15:19 34.12178 -121.02401 30195 ft 366 kts 247°
2026-04-22 15:19 34.09966 -121.07918 30193 ft 368 kts 247°
2026-04-22 15:20 34.07739 -121.13474 30196 ft 368 kts 246°
2026-04-22 15:20 34.05516 -121.19006 30200 ft 367 kts 246°
2026-04-22 15:21 34.03279 -121.24567 30199 ft 368 kts 246°
2026-04-22 15:21 34.01039 -121.30117 30200 ft 371 kts 246°
2026-04-22 15:22 33.98796 -121.35668 30204 ft 368 kts 246°
2026-04-22 15:22 33.96551 -121.41217 30203 ft 370 kts 246°
2026-04-22 15:23 33.94320 -121.46729 30211 ft 369 kts 246°
2026-04-22 15:23 33.92065 -121.52280 30221 ft 368 kts 246°
2026-04-22 15:24 33.89801 -121.57847 30224 ft 368 kts 246°
2026-04-22 15:24 33.87558 -121.63357 30221 ft 368 kts 246°
2026-04-22 15:25 33.85293 -121.68917 30228 ft 370 kts 246°
2026-04-22 15:25 33.83029 -121.74457 30224 ft 370 kts 246°
2026-04-22 15:26 33.80761 -121.79994 30230 ft 372 kts 246°
2026-04-22 15:26 33.78492 -121.85523 30230 ft 369 kts 246°
2026-04-22 15:27 33.76231 -121.91033 30235 ft 371 kts 246°
2026-04-22 15:27 33.73969 -121.96543 30231 ft 367 kts 246°
2026-04-22 15:28 33.71687 -122.02080 30231 ft 370 kts 246°
2026-04-22 15:28 33.69403 -122.07615 30234 ft 371 kts 246°
2026-04-22 15:29 33.67120 -122.13136 30235 ft 369 kts 246°
2026-04-22 15:30 33.64074 -122.20500 30235 ft 372 kts 246°
2026-04-22 15:30 33.61412 -122.26912 30234 ft 372 kts 246°
2026-04-22 15:31 33.59111 -122.32452 30237 ft 370 kts 246°
2026-04-22 15:31 33.56811 -122.37980 30237 ft 370 kts 246°
2026-04-22 15:32 33.54520 -122.43462 30233 ft 371 kts 246°
2026-04-22 15:32 33.52228 -122.48941 30233 ft 369 kts 246°
2026-04-22 15:33 33.49923 -122.54458 30235 ft 371 kts 246°
2026-04-22 15:33 33.47956 -122.60107 30237 ft 367 kts 253°
2026-04-22 15:34 33.46631 -122.65985 30230 ft 367 kts 257°
2026-04-22 15:34 33.45440 -122.71933 30232 ft 368 kts 257°
2026-04-22 15:35 33.44445 -122.76907 30228 ft 369 kts 257°
2026-04-22 15:35 33.43033 -122.83838 30226 ft 369 kts 256°
2026-04-22 15:36 33.41810 -122.89766 30223 ft 370 kts 256°
2026-04-22 15:36 33.40568 -122.95729 30226 ft 367 kts 256°
2026-04-22 15:37 33.39334 -123.01663 30231 ft 369 kts 256°
2026-04-22 15:37 33.38092 -123.07598 30225 ft 369 kts 257°
2026-04-22 15:38 33.36843 -123.13573 30228 ft 368 kts 256°
2026-04-22 15:38 33.34976 -123.22464 30228 ft 366 kts 257°
2026-04-22 15:39 33.33731 -123.28355 30231 ft 367 kts 257°
2026-04-22 15:39 33.32477 -123.34290 30237 ft 369 kts 257°
2026-04-22 15:40 33.31219 -123.40221 30240 ft 368 kts 257°
2026-04-22 15:40 33.29968 -123.46098 30246 ft 367 kts 257°
2026-04-22 15:41 33.28702 -123.52038 30243 ft 370 kts 257°
2026-04-22 15:41 33.27437 -123.57959 30248 ft 369 kts 257°
2026-04-22 15:42 33.26168 -123.63886 30252 ft 368 kts 257°
2026-04-22 15:42 33.24899 -123.69801 30253 ft 369 kts 256°
2026-04-22 15:43 33.23627 -123.75713 30252 ft 368 kts 256°
2026-04-22 15:43 33.22351 -123.81625 30253 ft 369 kts 256°
2026-04-22 15:44 33.21068 -123.87537 30256 ft 369 kts 256°
2026-04-22 15:44 33.19778 -123.93491 30254 ft 369 kts 256°
2026-04-22 15:45 33.18498 -123.99389 30258 ft 367 kts 256°
2026-04-22 15:45 33.17210 -124.05304 30255 ft 370 kts 257°
2026-04-22 15:46 33.15911 -124.11246 30259 ft 369 kts 256°
2026-04-22 15:46 33.14616 -124.17159 30255 ft 369 kts 256°
2026-04-22 15:47 33.13323 -124.23055 30255 ft 370 kts 256°
2026-04-22 15:47 33.12016 -124.28980 30254 ft 368 kts 256°
2026-04-22 15:48 33.10711 -124.34902 30256 ft 370 kts 256°
2026-04-22 15:48 33.09403 -124.40833 30252 ft 370 kts 256°
2026-04-22 15:49 33.08100 -124.46731 30256 ft 368 kts 257°
2026-04-22 15:49 33.07319 -124.52750 30250 ft 368 kts 269°
2026-04-22 15:50 33.07767 -124.58845 30256 ft 373 kts 277°
2026-04-22 15:50 33.08617 -124.64922 30249 ft 371 kts 277°
2026-04-22 15:51 33.09494 -124.70984 30250 ft 371 kts 277°
2026-04-22 15:51 33.10340 -124.77071 30251 ft 375 kts 276°
2026-04-22 15:52 33.11163 -124.83166 30247 ft 370 kts 276°
2026-04-22 15:52 33.11966 -124.89231 30250 ft 375 kts 276°
2026-04-22 15:53 33.12771 -124.95313 30249 ft 372 kts 276°
2026-04-22 15:53 33.13576 -125.01448 30253 ft 372 kts 276°
2026-04-22 15:54 33.14369 -125.07529 30256 ft 372 kts 276°
2026-04-22 15:54 33.15159 -125.13605 30247 ft 373 kts 276°
2026-04-22 15:55 33.15947 -125.19706 30256 ft 373 kts 277°
2026-04-22 15:55 33.16742 -125.25829 30259 ft 374 kts 277°
2026-04-22 15:56 33.17528 -125.31897 30250 ft 371 kts 276°
2026-04-22 15:56 33.18312 -125.38038 30253 ft 373 kts 276°
2026-04-22 15:57 33.19085 -125.44129 30257 ft 373 kts 277°
2026-04-22 15:57 33.19861 -125.50253 30256 ft 372 kts 277°
2026-04-22 15:58 33.20640 -125.56381 30263 ft 374 kts 277°
2026-04-22 15:58 33.21409 -125.62479 30268 ft 374 kts 277°
2026-04-22 15:59 33.22176 -125.68589 30266 ft 372 kts 277°
2026-04-22 15:59 33.22941 -125.74706 30270 ft 374 kts 276°
2026-04-22 16:00 33.23705 -125.80821 30272 ft 374 kts 276°
2026-04-22 16:00 33.24472 -125.86973 30273 ft 375 kts 276°
2026-04-22 16:01 33.25234 -125.93131 30271 ft 373 kts 276°
2026-04-22 16:01 33.25982 -125.99227 30270 ft 377 kts 276°
2026-04-22 16:02 33.26737 -126.05432 30271 ft 373 kts 277°
2026-04-22 16:02 33.27488 -126.11582 30270 ft 376 kts 277°
2026-04-22 16:03 33.28245 -126.17743 30268 ft 376 kts 276°
2026-04-22 16:03 33.28990 -126.23909 30261 ft 375 kts 276°
2026-04-22 16:04 33.29733 -126.30068 30257 ft 375 kts 276°
2026-04-22 16:04 33.30468 -126.36225 30257 ft 376 kts 277°
2026-04-22 16:05 33.31201 -126.42361 30257 ft 375 kts 277°
2026-04-22 16:05 33.31934 -126.48502 30256 ft 374 kts 277°
2026-04-22 16:06 33.32664 -126.54652 30255 ft 377 kts 277°
2026-04-22 16:06 33.33387 -126.60841 30257 ft 373 kts 277°
2026-04-22 16:07 33.34110 -126.67020 30256 ft 376 kts 276°
2026-04-22 16:07 33.34832 -126.73166 30256 ft 374 kts 276°
2026-04-22 16:08 33.35546 -126.79301 30258 ft 378 kts 276°
2026-04-22 16:08 33.36264 -126.85495 30256 ft 377 kts 276°
2026-04-22 16:09 33.36979 -126.91682 30257 ft 378 kts 276°
2026-04-22 16:09 33.37693 -126.97889 30257 ft 376 kts 276°
2026-04-22 16:10 33.38401 -127.04070 30255 ft 379 kts 276°
2026-04-22 16:10 33.39104 -127.10240 30256 ft 376 kts 276°
2026-04-22 16:11 33.39803 -127.16447 30257 ft 377 kts 276°
2026-04-22 16:11 33.40501 -127.22643 30255 ft 376 kts 276°
2026-04-22 16:12 33.41203 -127.28883 30255 ft 379 kts 276°
2026-04-22 16:12 33.41903 -127.35099 30257 ft 375 kts 276°
2026-04-22 16:13 33.42591 -127.41283 30254 ft 377 kts 276°
2026-04-22 16:13 33.43271 -127.47443 30259 ft 376 kts 276°
2026-04-22 16:14 33.43960 -127.53664 30265 ft 376 kts 276°
2026-04-22 16:14 33.44639 -127.59875 30266 ft 375 kts 276°
2026-04-22 16:15 33.45309 -127.66022 30263 ft 376 kts 276°
2026-04-22 16:15 33.45986 -127.72266 30268 ft 378 kts 276°
2026-04-22 16:16 33.46658 -127.78468 30270 ft 378 kts 276°
2026-04-22 16:16 33.47323 -127.84684 30265 ft 376 kts 276°
2026-04-22 16:17 33.47994 -127.90928 30280 ft 378 kts 276°
2026-04-22 16:17 33.48656 -127.97151 30274 ft 377 kts 276°
2026-04-22 16:18 33.49315 -128.03366 30275 ft 377 kts 276°
2026-04-22 16:18 33.49976 -128.09593 30275 ft 377 kts 276°
2026-04-22 16:19 33.50631 -128.15813 30277 ft 378 kts 276°
2026-04-22 16:19 33.51278 -128.22031 30275 ft 377 kts 276°
2026-04-22 16:20 33.51926 -128.28256 30271 ft 379 kts 276°
2026-04-22 16:20 33.52574 -128.34517 30279 ft 377 kts 276°
2026-04-22 16:21 33.53213 -128.40727 30276 ft 378 kts 276°
2026-04-22 16:21 33.53856 -128.46988 30273 ft 378 kts 276°
2026-04-22 16:22 33.54807 -128.56323 30276 ft 379 kts 276°
2026-04-22 16:23 33.55756 -128.65717 30278 ft 379 kts 275°
2026-04-22 16:23 33.56385 -128.71991 30277 ft 380 kts 276°
2026-04-22 16:24 33.57323 -128.81401 30277 ft 379 kts 275°
2026-04-22 16:25 33.57303 -128.87682 30273 ft 380 kts 261°
2026-04-22 16:25 33.55697 -128.93744 30277 ft 384 kts 248°
2026-04-22 16:25 33.54475 -128.96565 30273 ft 386 kts 242°
2026-04-22 16:26 33.51149 -129.01660 30277 ft 395 kts 233°
2026-04-22 16:26 33.47457 -129.06509 30269 ft 390 kts 232°
2026-04-22 16:27 33.43827 -129.11319 30271 ft 392 kts 232°
2026-04-22 16:27 33.40200 -129.16176 30268 ft 391 kts 233°
2026-04-22 16:28 33.36583 -129.21040 30267 ft 391 kts 232°
2026-04-22 16:28 33.32994 -129.25867 30268 ft 390 kts 233°
2026-04-22 16:29 33.29378 -129.30727 30271 ft 393 kts 233°
2026-04-22 16:29 33.25766 -129.35574 30277 ft 391 kts 232°
2026-04-22 16:30 33.22137 -129.40442 30280 ft 392 kts 233°
2026-04-22 16:30 33.18507 -129.45297 30283 ft 392 kts 233°
2026-04-22 16:31 33.14896 -129.50124 30289 ft 393 kts 233°
2026-04-22 16:31 33.11272 -129.54956 30287 ft 390 kts 232°
2026-04-22 16:32 33.07655 -129.59781 30285 ft 390 kts 232°
2026-04-22 16:32 33.04045 -129.64587 30279 ft 390 kts 232°
2026-04-22 16:33 33.00394 -129.69440 30276 ft 391 kts 232°
2026-04-22 16:33 32.96757 -129.74269 30277 ft 391 kts 231°
2026-04-22 16:34 32.93150 -129.79051 30276 ft 391 kts 231°
2026-04-22 16:34 32.89500 -129.83878 30279 ft 389 kts 231°
2026-04-22 16:35 32.85868 -129.88681 30275 ft 393 kts 232°
2026-04-22 16:35 32.82243 -129.93469 30278 ft 389 kts 231°
2026-04-22 16:36 32.78613 -129.98250 30279 ft 390 kts 232°
2026-04-22 16:36 32.74998 -130.03018 30276 ft 390 kts 232°
2026-04-22 16:37 32.71343 -130.07831 30277 ft 391 kts 232°
2026-04-22 16:37 32.67713 -130.12602 30276 ft 390 kts 232°
2026-04-22 16:38 32.64059 -130.17397 30274 ft 393 kts 231°
2026-04-22 16:38 32.60394 -130.22197 30275 ft 390 kts 231°
2026-04-22 16:39 32.56766 -130.26941 30277 ft 391 kts 231°
2026-04-22 16:39 32.53110 -130.31715 30275 ft 390 kts 231°
2026-04-22 16:40 32.49442 -130.36504 30275 ft 393 kts 231°
2026-04-22 16:41 32.43972 -130.43628 30276 ft 391 kts 231°
2026-04-22 16:41 32.40290 -130.48419 30278 ft 395 kts 231°
2026-04-22 16:42 32.36618 -130.53188 30275 ft 391 kts 232°
2026-04-22 16:42 32.32954 -130.57947 30277 ft 393 kts 231°
2026-04-22 16:43 32.29263 -130.62724 30276 ft 394 kts 231°
2026-04-22 16:43 32.25565 -130.67509 30276 ft 392 kts 231°
2026-04-22 16:44 32.21894 -130.72260 30276 ft 396 kts 230°
2026-04-22 16:44 32.18181 -130.77046 30276 ft 393 kts 230°
2026-04-22 16:45 32.14500 -130.81790 30278 ft 397 kts 231°
2026-04-22 16:45 32.10777 -130.86585 30277 ft 393 kts 230°
2026-04-22 16:46 32.07089 -130.91330 30276 ft 396 kts 230°
2026-04-22 16:46 32.03365 -130.96111 30277 ft 393 kts 230°
2026-04-22 16:47 31.99681 -131.00830 30277 ft 394 kts 231°
2026-04-22 16:47 31.96578 -131.04803 30276 ft 397 kts 230°
2026-04-22 16:48 31.92235 -131.10368 30276 ft 394 kts 230°
2026-04-22 16:48 31.88527 -131.15105 30274 ft 392 kts 230°
2026-04-22 16:49 31.84815 -131.19840 30277 ft 396 kts 230°
2026-04-22 16:49 31.81101 -131.24571 30274 ft 395 kts 230°
2026-04-22 16:50 31.77379 -131.29309 30274 ft 393 kts 230°
2026-04-22 16:50 31.73672 -131.34018 30275 ft 393 kts 230°
2026-04-22 16:51 31.69933 -131.38757 30268 ft 394 kts 230°
2026-04-22 16:51 31.66246 -131.43419 30269 ft 389 kts 231°
2026-04-22 16:52 31.62539 -131.48116 30270 ft 395 kts 231°
2026-04-22 16:52 31.58818 -131.52821 30269 ft 392 kts 230°
2026-04-22 16:53 31.55121 -131.57494 30266 ft 392 kts 230°
2026-04-22 16:53 31.51421 -131.62164 30265 ft 390 kts 230°
2026-04-22 16:54 31.47718 -131.66829 30265 ft 392 kts 230°
2026-04-22 16:54 31.43979 -131.71536 30264 ft 393 kts 229°
2026-04-22 16:55 31.40267 -131.76199 30264 ft 392 kts 229°
2026-04-22 16:55 31.36566 -131.80841 30263 ft 391 kts 230°
2026-04-22 16:56 31.32844 -131.85503 30264 ft 393 kts 230°
2026-04-22 16:56 31.29137 -131.90140 30266 ft 389 kts 230°
2026-04-22 16:57 31.25437 -131.94768 30274 ft 393 kts 230°
2026-04-22 16:57 31.21706 -131.99425 30276 ft 388 kts 230°
2026-04-22 16:58 31.18617 -132.03276 30276 ft 392 kts 230°
2026-04-22 16:58 31.14278 -132.08682 30276 ft 396 kts 229°
2026-04-22 16:59 31.10881 -132.13628 30275 ft 386 kts 240°
2026-04-22 16:59 31.08577 -132.19228 30278 ft 386 kts 249°
2026-04-22 17:00 31.06736 -132.25160 30276 ft 388 kts 251°
2026-04-22 17:00 31.04211 -132.34065 30276 ft 390 kts 251°
2026-04-22 17:01 31.02490 -132.40018 30277 ft 388 kts 251°
2026-04-22 17:01 31.00730 -132.45998 30277 ft 389 kts 251°
2026-04-22 17:02 30.98956 -132.51981 30274 ft 390 kts 251°
2026-04-22 17:02 30.97186 -132.57913 30277 ft 391 kts 251°
2026-04-22 17:03 30.95389 -132.63898 30274 ft 393 kts 251°
2026-04-22 17:03 30.93604 -132.69870 30280 ft 392 kts 251°
2026-04-22 17:04 30.91819 -132.75839 30272 ft 392 kts 250°
2026-04-22 17:04 30.90010 -132.81859 30278 ft 394 kts 250°
2026-04-22 17:05 30.88203 -132.87863 30276 ft 392 kts 251°
2026-04-22 17:05 30.86403 -132.93839 30275 ft 394 kts 250°
2026-04-22 17:06 30.84596 -132.99820 30278 ft 393 kts 250°
2026-04-22 17:06 30.82787 -133.05798 30274 ft 391 kts 250°
2026-04-22 17:07 30.80970 -133.11795 30275 ft 394 kts 250°
2026-04-22 17:07 30.79156 -133.17772 30278 ft 396 kts 250°
2026-04-22 17:08 30.77337 -133.23755 30277 ft 394 kts 251°
2026-04-22 17:08 30.75499 -133.29784 30275 ft 395 kts 250°
2026-04-22 17:09 30.73666 -133.35782 30277 ft 394 kts 250°
2026-04-22 17:09 30.71834 -133.41768 30276 ft 396 kts 250°
2026-04-22 17:10 30.69995 -133.47754 30274 ft 395 kts 250°
2026-04-22 17:10 30.68139 -133.53789 30271 ft 396 kts 250°
2026-04-22 17:11 30.66307 -133.59749 30268 ft 396 kts 250°
2026-04-22 17:11 30.64448 -133.65773 30267 ft 397 kts 250°
2026-04-22 17:12 30.62598 -133.71755 30264 ft 397 kts 250°
2026-04-22 17:12 30.60732 -133.77788 30259 ft 396 kts 250°
2026-04-22 17:13 30.58868 -133.83789 30256 ft 396 kts 250°
2026-04-22 17:13 30.57005 -133.89789 30259 ft 396 kts 250°
2026-04-22 17:14 30.55126 -133.95816 30257 ft 398 kts 249°
2026-04-22 17:14 30.53257 -134.01810 30256 ft 394 kts 250°
2026-04-22 17:15 30.51388 -134.07793 30257 ft 398 kts 250°
2026-04-22 17:15 30.49513 -134.13788 30255 ft 398 kts 250°
2026-04-22 17:16 30.47631 -134.19789 30256 ft 396 kts 249°
2026-04-22 17:16 30.45738 -134.25801 30256 ft 398 kts 250°
2026-04-22 17:17 30.43843 -134.31825 30257 ft 398 kts 250°
2026-04-22 17:17 30.41947 -134.37848 30256 ft 399 kts 250°
2026-04-22 17:18 30.40040 -134.43881 30256 ft 398 kts 250°
2026-04-22 17:18 30.38131 -134.49908 30258 ft 403 kts 250°
2026-04-22 17:19 30.34311 -134.61943 30259 ft 399 kts 250°
2026-04-22 17:20 30.30445 -134.74081 30258 ft 401 kts 249°
2026-04-22 17:21 30.27543 -134.83159 30257 ft 404 kts 250°
2026-04-22 17:22 30.24633 -134.92244 30256 ft 405 kts 250°
2026-04-22 17:23 30.21708 -135.01338 30256 ft 404 kts 249°
2026-04-22 17:23 30.18762 -135.10475 30259 ft 406 kts 249°
2026-04-22 17:24 30.16795 -135.16566 30259 ft 405 kts 249°
2026-04-22 17:24 30.14822 -135.22669 30259 ft 407 kts 249°
2026-04-22 17:25 30.12849 -135.28752 30260 ft 405 kts 250°
2026-04-22 17:25 30.10872 -135.34839 30265 ft 406 kts 250°
2026-04-22 17:26 30.08889 -135.40936 30268 ft 407 kts 250°
2026-04-22 17:26 30.06893 -135.47058 30268 ft 407 kts 250°
2026-04-22 17:27 30.04889 -135.53197 30267 ft 410 kts 250°
2026-04-22 17:27 30.02893 -135.59300 30267 ft 410 kts 250°
2026-04-22 17:28 30.00888 -135.65411 30265 ft 410 kts 249°
2026-04-22 17:28 29.98852 -135.71606 30262 ft 412 kts 250°
2026-04-22 17:29 29.96832 -135.77750 30261 ft 411 kts 249°
2026-04-22 17:29 29.94810 -135.83891 30259 ft 412 kts 249°
2026-04-22 17:30 29.92767 -135.90082 30258 ft 412 kts 250°
2026-04-22 17:30 29.90733 -135.96230 30257 ft 413 kts 250°
2026-04-22 17:31 29.88692 -136.02387 30255 ft 413 kts 250°
2026-04-22 17:31 29.86636 -136.08577 30261 ft 414 kts 250°
2026-04-22 17:32 29.84592 -136.14723 30266 ft 411 kts 250°
2026-04-22 17:32 29.82550 -136.20854 30264 ft 413 kts 250°
2026-04-22 17:33 29.80488 -136.27034 30259 ft 413 kts 250°
2026-04-22 17:33 29.78438 -136.33164 30253 ft 411 kts 250°
2026-04-22 17:34 29.76383 -136.39298 30243 ft 413 kts 250°
2026-04-22 17:34 29.74312 -136.45471 30250 ft 412 kts 250°
2026-04-22 17:35 29.72254 -136.51593 30248 ft 412 kts 250°
2026-04-22 17:35 29.70192 -136.57716 30253 ft 413 kts 250°
2026-04-22 17:36 29.68116 -136.63870 30249 ft 412 kts 250°
2026-04-22 17:36 29.66041 -136.70012 30248 ft 413 kts 250°
2026-04-22 17:37 29.63959 -136.76158 30250 ft 414 kts 250°
2026-04-22 17:37 29.61870 -136.82318 30251 ft 415 kts 250°
2026-04-22 17:38 29.59786 -136.88451 30245 ft 414 kts 250°
2026-04-22 17:38 29.57695 -136.94594 30247 ft 415 kts 250°
2026-04-22 17:39 29.55593 -137.00760 30244 ft 415 kts 250°
2026-04-22 17:40 29.52430 -137.10014 30248 ft 414 kts 250°
2026-04-22 17:40 29.50328 -137.16150 30250 ft 416 kts 250°
2026-04-22 17:41 29.48205 -137.22340 30252 ft 416 kts 250°
2026-04-22 17:41 29.46091 -137.28493 30251 ft 415 kts 250°
2026-04-22 17:42 29.43970 -137.34653 30250 ft 416 kts 250°
2026-04-22 17:42 29.42216 -137.39735 30250 ft 414 kts 250°
2026-04-22 17:43 29.39746 -137.46884 30250 ft 413 kts 250°
2026-04-22 17:43 29.37620 -137.53029 30248 ft 415 kts 250°
2026-04-22 17:44 29.35497 -137.59148 30247 ft 413 kts 250°
2026-04-22 17:44 29.33382 -137.65236 30243 ft 413 kts 250°
2026-04-22 17:45 29.31248 -137.71370 30248 ft 414 kts 250°
2026-04-22 17:45 29.29123 -137.77470 30241 ft 413 kts 250°
2026-04-22 17:46 29.26997 -137.83557 30243 ft 414 kts 250°
2026-04-22 17:46 29.24861 -137.89667 30241 ft 413 kts 250°
2026-04-22 17:47 29.22732 -137.95746 30241 ft 413 kts 250°
2026-04-22 17:47 29.20596 -138.01827 30242 ft 412 kts 250°
2026-04-22 17:48 29.18807 -138.06920 30238 ft 412 kts 250°
2026-04-22 17:48 29.16321 -138.13979 30244 ft 412 kts 250°
2026-04-22 17:49 29.14174 -138.20065 30248 ft 413 kts 250°
2026-04-22 17:49 29.12041 -138.26102 30253 ft 412 kts 250°
2026-04-22 17:50 29.09889 -138.32185 30252 ft 412 kts 250°
2026-04-22 17:50 29.07743 -138.38238 30246 ft 412 kts 250°
2026-04-22 17:51 29.05598 -138.44279 30245 ft 412 kts 250°
2026-04-22 17:51 29.03445 -138.50331 30247 ft 411 kts 250°
2026-04-22 17:52 29.01301 -138.56346 30245 ft 411 kts 250°
2026-04-22 17:52 28.99147 -138.62381 30245 ft 410 kts 250°
2026-04-22 17:53 28.96992 -138.68410 30241 ft 412 kts 250°
2026-04-22 17:53 28.94830 -138.74446 30239 ft 410 kts 250°
2026-04-22 17:54 28.92680 -138.80444 30239 ft 410 kts 250°
2026-04-22 17:54 28.90515 -138.86470 30237 ft 410 kts 250°
2026-04-22 17:55 28.88721 -138.91455 30235 ft 409 kts 250°
2026-04-22 17:55 28.86199 -138.98451 30242 ft 410 kts 250°
2026-04-22 17:56 28.84030 -139.04460 30250 ft 410 kts 250°
2026-04-22 17:56 28.81859 -139.10463 30251 ft 410 kts 250°
2026-04-22 17:57 28.79690 -139.16447 30249 ft 410 kts 250°
2026-04-22 17:57 28.77516 -139.22440 30250 ft 410 kts 250°
2026-04-22 17:58 28.75344 -139.28418 30247 ft 408 kts 250°
2026-04-22 17:58 28.73180 -139.34361 30238 ft 409 kts 250°
2026-04-22 17:59 28.71001 -139.40337 30226 ft 408 kts 250°
2026-04-22 17:59 28.68827 -139.46286 30222 ft 409 kts 250°
2026-04-22 18:00 28.67000 -139.51263 30223 ft 408 kts 250°
2026-04-22 18:00 28.64450 -139.58199 30221 ft 408 kts 250°
2026-04-22 18:01 28.62268 -139.64130 30221 ft 407 kts 250°
2026-04-22 18:01 28.60087 -139.70047 30219 ft 409 kts 249°
2026-04-22 18:02 28.57895 -139.75986 30218 ft 409 kts 249°
2026-04-22 18:02 28.55695 -139.81935 30223 ft 407 kts 249°
2026-04-22 18:03 28.53502 -139.87856 30234 ft 406 kts 249°
2026-04-22 18:03 28.51320 -139.93739 30236 ft 406 kts 249°
2026-04-22 18:04 28.49113 -139.99678 30236 ft 406 kts 249°
2026-04-22 18:04 28.46916 -140.05582 30235 ft 407 kts 249°
2026-04-22 18:05 28.44722 -140.11469 30234 ft 406 kts 249°
2026-04-22 18:05 28.42520 -140.17369 30235 ft 407 kts 249°
2026-04-22 18:06 28.40313 -140.23270 30235 ft 407 kts 249°
2026-04-22 18:06 28.38110 -140.29155 30233 ft 407 kts 249°
2026-04-22 18:07 28.36259 -140.34091 30232 ft 408 kts 249°
2026-04-22 18:07 28.33662 -140.41003 30228 ft 407 kts 249°
2026-04-22 18:08 28.31448 -140.46886 30229 ft 407 kts 249°
2026-04-22 18:08 28.29229 -140.52774 30227 ft 408 kts 249°
2026-04-22 18:09 28.26995 -140.58696 30225 ft 409 kts 249°
2026-04-22 18:09 28.24756 -140.64619 30223 ft 408 kts 249°
2026-04-22 18:10 28.22526 -140.70509 30224 ft 409 kts 249°
2026-04-22 18:10 28.20280 -140.76431 30223 ft 409 kts 249°
2026-04-22 18:11 28.18022 -140.82376 30215 ft 409 kts 249°
2026-04-22 18:11 28.15791 -140.88242 30217 ft 409 kts 249°
2026-04-22 18:12 28.13534 -140.94167 30216 ft 409 kts 249°
2026-04-22 18:12 28.11667 -140.99060 30214 ft 408 kts 249°
2026-04-22 18:13 28.09038 -141.05942 30215 ft 409 kts 249°
2026-04-22 18:13 28.06782 -141.11839 30216 ft 407 kts 249°
2026-04-22 18:14 28.04541 -141.17685 30214 ft 408 kts 249°
2026-04-22 18:14 28.02283 -141.23569 30215 ft 408 kts 249°
2026-04-22 18:15 28.00021 -141.29448 30217 ft 408 kts 249°
2026-04-22 18:15 27.97750 -141.35347 30216 ft 407 kts 249°
2026-04-22 18:16 27.95504 -141.41170 30215 ft 408 kts 249°
2026-04-22 18:16 27.93242 -141.47028 30215 ft 406 kts 249°
2026-04-22 18:17 27.90985 -141.52863 30214 ft 406 kts 249°
2026-04-22 18:17 27.88713 -141.58730 30214 ft 406 kts 248°
2026-04-22 18:18 27.86455 -141.64552 30212 ft 407 kts 249°
2026-04-22 18:18 27.84231 -141.70270 30209 ft 382 kts 248°
2026-04-22 18:18 27.83180 -141.72961 30211 ft 366 kts 248°
2026-04-22 18:19 27.82186 -141.75507 30214 ft 354 kts 248°
2026-04-22 18:19 27.80174 -141.80687 30211 ft 372 kts 248°
2026-04-22 18:19 27.79121 -141.83401 30213 ft 384 kts 248°
2026-04-22 18:20 27.78026 -141.86217 30210 ft 395 kts 248°
2026-04-22 18:20 27.76900 -141.89104 30211 ft 406 kts 248°
2026-04-22 18:20 27.75762 -141.92013 30210 ft 407 kts 248°
2026-04-22 18:21 27.73490 -141.97810 30210 ft 404 kts 248°
2026-04-22 18:21 27.71213 -142.03618 30208 ft 405 kts 248°
2026-04-22 18:22 27.68942 -142.09402 30207 ft 404 kts 248°
2026-04-22 18:22 27.66664 -142.15202 30205 ft 404 kts 248°
2026-04-22 18:23 27.64383 -142.21001 30203 ft 404 kts 248°
2026-04-22 18:23 27.62120 -142.26744 30203 ft 403 kts 248°
2026-04-22 18:24 27.58700 -142.35403 30199 ft 403 kts 248°
2026-04-22 18:25 27.55270 -142.44066 30196 ft 404 kts 248°
2026-04-22 18:25 27.52988 -142.49820 30190 ft 404 kts 248°
2026-04-22 18:26 27.49557 -142.58455 30188 ft 403 kts 248°
2026-04-22 18:26 27.47263 -142.64218 30187 ft 403 kts 248°
2026-04-22 18:27 27.44964 -142.69987 30184 ft 404 kts 248°
2026-04-22 18:27 27.42673 -142.75726 30184 ft 403 kts 248°
2026-04-22 18:28 27.40381 -142.81461 30182 ft 403 kts 248°
2026-04-22 18:28 27.38092 -142.87178 30182 ft 402 kts 248°
2026-04-22 18:29 27.35792 -142.92918 30182 ft 403 kts 248°
2026-04-22 18:29 27.33493 -142.98647 30181 ft 402 kts 248°
2026-04-22 18:30 27.30051 -143.07201 30183 ft 402 kts 248°
2026-04-22 18:31 27.27743 -143.12933 30179 ft 403 kts 248°
2026-04-22 18:31 27.25441 -143.18642 30179 ft 402 kts 248°
2026-04-22 18:32 27.23128 -143.24367 30178 ft 402 kts 248°
2026-04-22 18:32 27.20815 -143.30083 30181 ft 403 kts 248°
2026-04-22 18:33 27.18501 -143.35788 30179 ft 401 kts 248°
2026-04-22 18:33 27.16188 -143.41487 30177 ft 401 kts 248°
2026-04-22 18:34 27.13865 -143.47200 30176 ft 403 kts 249°
2026-04-22 18:34 27.11541 -143.52919 30179 ft 403 kts 248°
2026-04-22 18:35 27.09222 -143.58611 30177 ft 402 kts 248°
2026-04-22 18:35 27.06891 -143.64323 30178 ft 401 kts 249°
2026-04-22 18:36 27.04567 -143.70009 30175 ft 402 kts 248°
2026-04-22 18:36 27.02245 -143.75682 30174 ft 402 kts 248°
2026-04-22 18:37 26.99912 -143.81372 30177 ft 401 kts 248°
2026-04-22 18:37 26.97977 -143.86090 30172 ft 400 kts 249°
2026-04-22 18:38 26.95266 -143.92688 30173 ft 401 kts 249°
2026-04-22 18:38 26.92931 -143.98358 30173 ft 402 kts 249°
2026-04-22 18:39 26.89436 -144.06836 30172 ft 402 kts 249°
2026-04-22 18:39 26.87082 -144.12537 30171 ft 400 kts 249°
2026-04-22 18:40 26.84737 -144.18216 30167 ft 404 kts 249°
2026-04-22 18:40 26.82392 -144.23874 30170 ft 400 kts 249°
2026-04-22 18:41 26.80021 -144.29596 30163 ft 403 kts 249°
2026-04-22 18:41 26.77701 -144.35185 30170 ft 401 kts 249°
2026-04-22 18:42 26.75354 -144.40837 30163 ft 401 kts 249°
2026-04-22 18:42 26.73008 -144.46474 30159 ft 403 kts 249°
2026-04-22 18:43 26.70641 -144.52145 30163 ft 401 kts 249°
2026-04-22 18:43 26.68267 -144.57819 30158 ft 401 kts 249°
2026-04-22 18:44 26.65912 -144.63458 30161 ft 401 kts 249°
2026-04-22 18:44 26.63517 -144.69196 30163 ft 419 kts 249°
2026-04-22 18:45 26.62264 -144.72198 30159 ft 431 kts 249°
2026-04-22 18:45 26.60995 -144.75235 30163 ft 441 kts 249°
2026-04-22 18:45 26.58359 -144.81519 30158 ft 448 kts 249°
2026-04-22 18:46 26.55711 -144.87791 30158 ft 447 kts 249°
2026-04-22 18:46 26.53059 -144.94066 30153 ft 448 kts 249°
2026-04-22 18:47 26.50418 -145.00328 30152 ft 448 kts 249°
2026-04-22 18:47 26.47772 -145.06589 30151 ft 449 kts 249°
2026-04-22 18:48 26.45076 -145.12964 30150 ft 455 kts 249°
2026-04-22 18:48 26.42374 -145.19339 30154 ft 454 kts 249°
2026-04-22 18:49 26.39667 -145.25714 30155 ft 457 kts 249°
2026-04-22 18:49 26.36957 -145.32086 30154 ft 454 kts 249°
2026-04-22 18:50 26.34242 -145.38464 30157 ft 458 kts 249°
2026-04-22 18:50 26.31523 -145.44842 30155 ft 458 kts 249°
2026-04-22 18:51 26.28809 -145.51204 30156 ft 456 kts 250°
2026-04-22 18:51 26.26067 -145.57620 30154 ft 458 kts 249°
2026-04-22 18:52 26.23339 -145.63991 30151 ft 457 kts 249°
2026-04-22 18:52 26.20597 -145.70381 30154 ft 460 kts 249°
2026-04-22 18:53 26.17842 -145.76794 30155 ft 460 kts 249°
2026-04-22 18:53 26.15081 -145.83212 30152 ft 460 kts 249°
2026-04-22 18:54 26.12315 -145.89632 30153 ft 462 kts 249°
2026-04-22 18:54 26.09530 -145.96085 30151 ft 462 kts 249°
2026-04-22 18:55 26.06758 -146.02499 30150 ft 462 kts 249°
2026-04-22 18:55 26.03974 -146.08929 30150 ft 462 kts 249°
2026-04-22 18:56 26.01187 -146.15363 30149 ft 463 kts 249°
2026-04-22 18:56 25.98391 -146.21808 30149 ft 464 kts 249°
2026-04-22 18:57 25.95592 -146.28259 30146 ft 464 kts 249°
2026-04-22 18:57 25.92802 -146.34683 30146 ft 463 kts 249°
2026-04-22 18:58 25.90017 -146.41086 30146 ft 463 kts 249°
2026-04-22 18:58 25.87206 -146.47537 30141 ft 464 kts 249°
2026-04-22 18:59 25.84410 -146.53947 30140 ft 465 kts 249°
2026-04-22 18:59 25.81605 -146.60368 30140 ft 463 kts 249°
2026-04-22 19:00 25.78771 -146.66849 30134 ft 466 kts 249°
2026-04-22 19:00 25.75951 -146.73283 30134 ft 468 kts 249°
2026-04-22 19:01 25.73117 -146.79739 30132 ft 466 kts 249°
2026-04-22 19:01 25.70283 -146.86186 30131 ft 468 kts 249°
2026-04-22 19:02 25.67437 -146.92653 30130 ft 466 kts 249°
2026-04-22 19:02 25.64598 -146.99094 30131 ft 468 kts 249°
2026-04-22 19:03 25.61741 -147.05562 30130 ft 468 kts 249°
2026-04-22 19:03 25.58888 -147.12012 30132 ft 468 kts 249°
2026-04-22 19:04 25.56044 -147.18436 30130 ft 466 kts 249°
2026-04-22 19:04 25.53176 -147.24905 30129 ft 466 kts 249°
2026-04-22 19:05 25.50327 -147.31325 30130 ft 471 kts 249°
2026-04-22 19:05 25.47445 -147.37804 30131 ft 468 kts 249°
2026-04-22 19:06 25.44587 -147.44217 30130 ft 468 kts 249°
2026-04-22 19:07 25.40260 -147.53911 30133 ft 467 kts 249°
2026-04-22 19:07 25.37382 -147.60345 30129 ft 468 kts 249°
2026-04-22 19:08 25.34499 -147.66786 30132 ft 467 kts 248°
2026-04-22 19:08 25.31608 -147.73236 30130 ft 469 kts 248°
2026-04-22 19:09 25.28724 -147.79658 30131 ft 468 kts 248°
2026-04-22 19:09 25.26317 -147.85010 30131 ft 468 kts 248°
2026-04-22 19:10 25.22941 -147.92509 30131 ft 469 kts 248°
2026-04-22 19:10 25.20033 -147.98962 30132 ft 468 kts 248°
2026-04-22 19:11 25.17127 -148.05397 30128 ft 469 kts 248°
2026-04-22 19:11 25.14231 -148.11803 30130 ft 469 kts 248°
2026-04-22 19:12 25.11316 -148.18236 30131 ft 469 kts 248°
2026-04-22 19:12 25.08391 -148.24681 30130 ft 470 kts 248°
2026-04-22 19:13 25.05482 -148.31090 30132 ft 469 kts 248°
2026-04-22 19:13 25.02554 -148.37529 30130 ft 469 kts 248°
2026-04-22 19:14 24.99610 -148.43994 30132 ft 470 kts 248°
2026-04-22 19:14 24.96670 -148.50442 30132 ft 472 kts 248°
2026-04-22 19:15 24.94229 -148.55786 30131 ft 471 kts 248°
2026-04-22 19:15 24.90782 -148.63322 30131 ft 473 kts 248°
2026-04-22 19:16 24.87814 -148.69803 30131 ft 471 kts 248°
2026-04-22 19:16 24.84865 -148.76231 30130 ft 473 kts 248°
2026-04-22 19:17 24.81917 -148.82648 30132 ft 472 kts 248°
2026-04-22 19:17 24.78942 -148.89113 30132 ft 472 kts 248°
2026-04-22 19:18 24.75989 -148.95525 30129 ft 474 kts 248°
2026-04-22 19:18 24.73009 -149.01987 30128 ft 474 kts 248°
2026-04-22 19:19 24.70013 -149.08470 30128 ft 474 kts 248°
2026-04-22 19:19 24.67048 -149.14876 30127 ft 473 kts 248°
2026-04-22 19:20 24.64059 -149.21326 30126 ft 473 kts 248°
2026-04-22 19:20 24.61097 -149.27710 30127 ft 472 kts 248°
2026-04-22 19:21 24.58112 -149.34140 30126 ft 471 kts 248°
2026-04-22 19:21 24.55139 -149.40533 30122 ft 473 kts 248°
2026-04-22 19:22 24.52135 -149.46979 30120 ft 472 kts 248°
2026-04-22 19:22 24.49153 -149.53371 30120 ft 473 kts 248°
2026-04-22 19:23 24.46157 -149.59781 30116 ft 472 kts 248°
2026-04-22 19:23 24.43154 -149.66199 30115 ft 473 kts 248°
2026-04-22 19:24 24.40164 -149.72582 30112 ft 471 kts 248°
2026-04-22 19:24 24.37160 -149.78989 30114 ft 472 kts 248°
2026-04-22 19:25 24.34155 -149.85385 30112 ft 473 kts 248°
2026-04-22 19:25 24.31145 -149.91783 30112 ft 473 kts 248°
2026-04-22 19:26 24.28132 -149.98181 30108 ft 473 kts 248°
2026-04-22 19:26 24.25131 -150.04544 30109 ft 473 kts 248°
2026-04-22 19:27 24.22112 -150.10936 30111 ft 474 kts 248°
2026-04-22 19:27 24.19072 -150.17362 30108 ft 471 kts 248°
2026-04-22 19:28 24.16046 -150.23749 30110 ft 472 kts 247°
2026-04-22 19:28 24.13032 -150.30104 30111 ft 472 kts 248°
2026-04-22 19:29 24.10012 -150.36467 30110 ft 474 kts 248°
2026-04-22 19:29 24.06991 -150.42819 30111 ft 472 kts 248°
2026-04-22 19:30 24.04462 -150.48132 30111 ft 473 kts 247°
2026-04-22 19:30 24.00916 -150.55571 30111 ft 471 kts 247°
2026-04-22 19:31 23.97905 -150.61877 30110 ft 472 kts 247°
2026-04-22 19:31 23.94867 -150.68230 30111 ft 473 kts 247°
2026-04-22 19:32 23.91819 -150.74597 30110 ft 473 kts 247°
2026-04-22 19:32 23.88769 -150.80962 30110 ft 472 kts 247°
2026-04-22 19:33 23.85747 -150.87256 30110 ft 471 kts 246°
2026-04-22 19:33 23.82691 -150.93614 30110 ft 473 kts 247°
2026-04-22 19:34 23.79649 -150.99936 30111 ft 472 kts 246°
2026-04-22 19:34 23.76596 -151.06271 30108 ft 472 kts 246°
2026-04-22 19:35 23.73537 -151.12613 30110 ft 471 kts 246°
2026-04-22 19:35 23.70992 -151.17877 30109 ft 473 kts 246°
2026-04-22 19:36 23.67422 -151.25258 30113 ft 473 kts 246°
2026-04-22 19:36 23.65878 -151.28448 30551 ft 477 kts 246°
2026-04-22 19:36 23.64356 -151.31587 31433 ft 470 kts 246°
2026-04-22 19:36 23.62829 -151.34729 31981 ft 467 kts 247°
2026-04-22 19:37 23.61324 -151.37822 31955 ft 459 kts 247°
2026-04-22 19:37 23.59836 -151.40881 30789 ft 466 kts 247°
2026-04-22 19:37 23.58333 -151.43982 30108 ft 461 kts 246°
2026-04-22 19:38 23.55331 -151.50159 30109 ft 468 kts 246°
2026-04-22 19:38 23.52280 -151.56444 30107 ft 473 kts 246°
2026-04-22 19:39 23.49129 -151.62903 30109 ft 474 kts 246°
2026-04-22 19:39 23.46087 -151.69128 30112 ft 474 kts 246°
2026-04-22 19:40 23.42985 -151.75472 30110 ft 474 kts 246°
2026-04-22 19:40 23.39894 -151.81786 30111 ft 474 kts 246°
2026-04-22 19:41 23.36808 -151.88081 30114 ft 474 kts 246°
2026-04-22 19:41 23.33712 -151.94391 30111 ft 473 kts 246°
2026-04-22 19:42 23.30623 -152.00678 30112 ft 472 kts 246°
2026-04-22 19:42 23.27526 -152.06978 30110 ft 474 kts 246°
2026-04-22 19:43 23.22870 -152.16429 30113 ft 474 kts 246°
2026-04-22 19:43 23.19753 -152.22742 30118 ft 473 kts 246°
2026-04-22 19:44 23.16624 -152.29071 30123 ft 474 kts 246°
2026-04-22 19:44 23.13525 -152.35332 30121 ft 474 kts 246°
2026-04-22 19:45 23.10410 -152.41621 30121 ft 473 kts 246°
2026-04-22 19:45 23.07288 -152.47916 30121 ft 473 kts 246°
2026-04-22 19:46 23.04162 -152.54208 30120 ft 474 kts 246°
2026-04-22 19:46 23.01049 -152.60461 30117 ft 474 kts 246°
2026-04-22 19:47 22.97899 -152.66753 30118 ft 475 kts 245°
2026-04-22 19:47 22.94726 -152.73065 30118 ft 474 kts 245°
2026-04-22 19:48 22.91577 -152.79324 30113 ft 475 kts 245°
2026-04-22 19:48 22.88406 -152.85622 30114 ft 475 kts 245°
2026-04-22 19:49 22.85249 -152.91887 30115 ft 475 kts 245°
2026-04-22 19:49 22.82075 -152.98180 30121 ft 475 kts 245°
2026-04-22 19:50 22.78898 -153.04471 30126 ft 476 kts 245°
2026-04-22 19:50 22.75721 -153.10753 30123 ft 475 kts 245°
2026-04-22 19:51 22.72557 -153.17004 30123 ft 476 kts 245°
2026-04-22 19:51 22.69369 -153.23294 30121 ft 476 kts 245°
2026-04-22 19:52 22.66170 -153.29596 30118 ft 477 kts 245°
2026-04-22 19:52 22.62982 -153.35869 30120 ft 477 kts 245°
2026-04-22 19:53 22.59796 -153.42131 30123 ft 478 kts 245°
2026-04-22 19:53 22.56574 -153.48456 30121 ft 478 kts 245°
2026-04-22 19:54 22.53375 -153.54726 30121 ft 478 kts 245°
2026-04-22 19:54 22.50181 -153.60979 30122 ft 477 kts 245°
2026-04-22 19:55 22.46964 -153.67271 30119 ft 478 kts 245°
2026-04-22 19:55 22.43751 -153.73549 30122 ft 478 kts 244°
2026-04-22 19:56 22.40539 -153.79817 30119 ft 480 kts 244°
2026-04-22 19:56 22.37538 -153.86194 30118 ft 476 kts 252°
2026-04-22 19:57 22.36650 -153.89607 30119 ft 470 kts 263°
2026-04-22 19:57 22.36353 -153.93133 30121 ft 467 kts 270°
2026-04-22 19:57 22.36369 -154.00098 30116 ft 466 kts 274°
2026-04-22 19:58 22.36595 -154.07057 30116 ft 464 kts 275°
2026-04-22 19:58 22.36820 -154.14035 30114 ft 466 kts 274°
2026-04-22 19:59 22.36917 -154.17499 29791 ft 459 kts 274°
2026-04-22 20:00 22.37382 -154.38583 23313 ft 463 kts 273°
2026-04-22 20:00 22.37446 -154.42042 22456 ft 458 kts 273°
2026-04-22 20:01 22.37507 -154.45425 21686 ft 453 kts 273°
2026-04-22 20:01 22.37568 -154.48795 20882 ft 448 kts 273°
2026-04-22 20:01 22.37627 -154.52129 20107 ft 443 kts 273°
2026-04-22 20:01 22.37686 -154.55432 19322 ft 438 kts 274°
2026-04-22 20:02 22.37743 -154.58717 18540 ft 434 kts 274°
2026-04-22 20:02 22.37799 -154.61911 17736 ft 430 kts 274°
2026-04-22 20:02 22.37854 -154.65132 16938 ft 425 kts 274°
2026-04-22 20:02 22.37908 -154.68256 16147 ft 421 kts 274°
2026-04-22 20:03 22.37962 -154.71417 15323 ft 417 kts 274°
2026-04-22 20:03 22.38014 -154.74486 14542 ft 413 kts 274°
2026-04-22 20:03 22.38065 -154.77559 13745 ft 409 kts 274°
2026-04-22 20:03 22.38116 -154.80627 12947 ft 404 kts 273°
2026-04-22 20:04 22.38165 -154.83614 12373 ft 397 kts 273°
2026-04-22 20:04 22.38214 -154.86606 12150 ft 398 kts 273°
2026-04-22 20:04 22.38262 -154.89571 12123 ft 399 kts 273°
2026-04-22 20:04 22.38311 -154.92596 12120 ft 401 kts 273°
2026-04-22 20:05 22.38358 -154.95589 12118 ft 402 kts 273°
2026-04-22 20:05 22.38405 -154.98605 12121 ft 402 kts 273°
2026-04-22 20:05 22.38450 -155.01608 12120 ft 402 kts 273°
2026-04-22 20:06 22.38541 -155.07689 12121 ft 402 kts 273°
2026-04-22 20:06 22.38584 -155.10704 12122 ft 401 kts 273°
2026-04-22 20:06 22.38627 -155.13690 12123 ft 402 kts 273°
2026-04-22 20:06 22.38670 -155.16702 12123 ft 401 kts 273°
2026-04-22 20:07 22.38712 -155.19719 12122 ft 401 kts 273°
2026-04-22 20:07 22.38754 -155.22737 12118 ft 402 kts 273°
2026-04-22 20:07 22.38796 -155.25735 12116 ft 401 kts 273°
2026-04-22 20:07 22.38837 -155.28758 12118 ft 402 kts 273°
2026-04-22 20:08 22.38877 -155.31773 12118 ft 402 kts 273°
2026-04-22 20:08 22.38916 -155.34786 12120 ft 402 kts 273°
2026-04-22 20:08 22.38955 -155.37802 12120 ft 402 kts 273°
2026-04-22 20:08 22.38994 -155.40816 12122 ft 402 kts 273°
2026-04-22 20:09 22.39032 -155.43867 12120 ft 402 kts 273°
2026-04-22 20:09 22.39069 -155.46851 12119 ft 402 kts 273°
2026-04-22 20:09 22.39106 -155.49898 12120 ft 402 kts 273°
2026-04-22 20:09 22.39141 -155.52892 12116 ft 398 kts 273°
2026-04-22 20:10 22.39173 -155.55808 12092 ft 378 kts 273°
2026-04-22 20:10 22.39200 -155.58559 12062 ft 357 kts 273°
2026-04-22 20:10 22.39229 -155.61203 12034 ft 359 kts 273°
2026-04-22 20:10 22.39264 -155.63940 12038 ft 363 kts 273°
2026-04-22 20:11 22.39298 -155.66687 12023 ft 366 kts 273°
2026-04-22 20:11 22.39330 -155.69411 12012 ft 366 kts 273°
2026-04-22 20:11 22.39360 -155.72156 12022 ft 367 kts 273°
2026-04-22 20:11 22.39391 -155.74942 12021 ft 367 kts 273°
2026-04-22 20:12 22.39423 -155.77672 12016 ft 367 kts 273°
2026-04-22 20:12 22.39454 -155.80437 12003 ft 367 kts 273°
2026-04-22 20:12 22.39475 -155.82265 11992 ft 368 kts 273°
2026-04-22 20:12 22.39517 -155.85950 11984 ft 367 kts 273°
2026-04-22 20:13 22.39547 -155.88698 11979 ft 368 kts 273°
2026-04-22 20:13 22.39576 -155.91438 11972 ft 368 kts 273°
2026-04-22 20:13 22.39603 -155.94211 11972 ft 368 kts 273°
2026-04-22 20:13 22.39630 -155.96953 11987 ft 367 kts 273°
2026-04-22 20:14 22.39655 -155.99727 11986 ft 367 kts 273°
2026-04-22 20:14 22.39679 -156.02492 11989 ft 367 kts 273°
2026-04-22 20:14 22.39703 -156.05232 11991 ft 367 kts 273°
2026-04-22 20:14 22.39726 -156.07989 11996 ft 367 kts 273°
2026-04-22 20:15 22.39750 -156.10745 11994 ft 368 kts 273°
2026-04-22 20:15 22.39774 -156.13512 11989 ft 368 kts 273°
2026-04-22 20:15 22.39797 -156.16296 11978 ft 369 kts 273°
2026-04-22 20:15 22.39818 -156.19031 11983 ft 369 kts 273°
2026-04-22 20:16 22.39719 -156.21820 12002 ft 371 kts 266°
2026-04-22 20:16 22.39101 -156.24522 11950 ft 374 kts 250°
2026-04-22 20:16 22.37826 -156.26933 11887 ft 376 kts 236°
2026-04-22 20:16 22.36190 -156.29169 11955 ft 378 kts 233°
2026-04-22 20:17 22.34495 -156.31370 11985 ft 378 kts 232°
2026-04-22 20:17 22.32794 -156.33550 11998 ft 379 kts 232°
2026-04-22 20:17 22.31110 -156.35684 12017 ft 380 kts 232°
2026-04-22 20:17 22.29394 -156.37868 12034 ft 381 kts 232°
2026-04-22 20:18 22.27702 -156.40036 12037 ft 379 kts 232°
2026-04-22 20:18 22.26000 -156.42233 12027 ft 380 kts 232°
2026-04-22 20:18 22.24310 -156.44423 12032 ft 380 kts 232°
2026-04-22 20:18 22.22624 -156.46614 12021 ft 380 kts 232°
2026-04-22 20:19 22.20951 -156.48789 12015 ft 380 kts 232°
2026-04-22 20:19 22.19259 -156.50989 12022 ft 380 kts 232°
2026-04-22 20:19 22.17821 -156.52856 12048 ft 379 kts 232°
2026-04-22 20:19 22.16132 -156.55051 12041 ft 379 kts 232°
2026-04-22 20:20 22.14458 -156.57225 12042 ft 380 kts 232°
2026-04-22 20:20 22.12768 -156.59418 12025 ft 378 kts 232°
2026-04-22 20:20 22.11071 -156.61618 12035 ft 379 kts 232°
2026-04-22 20:20 22.09393 -156.63792 12035 ft 380 kts 232°
2026-04-22 20:21 22.07703 -156.65981 12032 ft 380 kts 231°
2026-04-22 20:21 22.05802 -156.67949 12033 ft 382 kts 216°
2026-04-22 20:21 22.03370 -156.69157 12033 ft 384 kts 195°
2026-04-22 20:21 22.00721 -156.69444 12035 ft 384 kts 176°
2026-04-22 20:22 21.98083 -156.68965 12036 ft 383 kts 164°
2026-04-22 20:22 21.95610 -156.67925 12034 ft 382 kts 149°
2026-04-22 20:22 21.93571 -156.66154 12036 ft 378 kts 130°
2026-04-22 20:22 21.91754 -156.64079 12032 ft 380 kts 137°
2026-04-22 20:23 21.89474 -156.62703 12027 ft 383 kts 161°
2026-04-22 20:23 21.86826 -156.62430 12032 ft 384 kts 186°
2026-04-22 20:23 21.84308 -156.63339 12034 ft 383 kts 211°
2026-04-22 20:23 21.82189 -156.65117 12032 ft 382 kts 225°
2026-04-22 20:24 21.80362 -156.67134 12030 ft 380 kts 230°
2026-04-22 20:24 21.78724 -156.69367 12028 ft 379 kts 236°
2026-04-22 20:24 21.77226 -156.71738 12027 ft 379 kts 238°
2026-04-22 20:24 21.75810 -156.74097 12029 ft 379 kts 239°
2026-04-22 20:25 21.74397 -156.76488 12029 ft 379 kts 239°
2026-04-22 20:25 21.72992 -156.78877 12028 ft 379 kts 239°
2026-04-22 20:25 21.71567 -156.81302 12028 ft 379 kts 239°
2026-04-22 20:25 21.70159 -156.83696 12025 ft 379 kts 239°
2026-04-22 20:26 21.68754 -156.86085 12029 ft 379 kts 239°
2026-04-22 20:26 21.67342 -156.88483 12024 ft 379 kts 239°
2026-04-22 20:26 21.65935 -156.90868 12026 ft 379 kts 239°
2026-04-22 20:26 21.64529 -156.93251 12024 ft 379 kts 239°
2026-04-22 20:27 21.63114 -156.95647 12025 ft 380 kts 239°
2026-04-22 20:27 21.61695 -156.98048 12028 ft 379 kts 239°
2026-04-22 20:27 21.60288 -157.00429 12030 ft 379 kts 239°
2026-04-22 20:27 21.58877 -157.02824 12033 ft 379 kts 239°
2026-04-22 20:28 21.57461 -157.05232 12032 ft 378 kts 239°
2026-04-22 20:28 21.56050 -157.07636 12032 ft 379 kts 239°
2026-04-22 20:28 21.54643 -157.10034 12035 ft 379 kts 239°
2026-04-22 20:28 21.53247 -157.12411 12036 ft 380 kts 239°
2026-04-22 20:29 21.51838 -157.14812 12032 ft 379 kts 239°
2026-04-22 20:29 21.50432 -157.17204 12028 ft 380 kts 239°
2026-04-22 20:29 21.49023 -157.19601 12023 ft 380 kts 239°
2026-04-22 20:29 21.47602 -157.22020 12022 ft 380 kts 239°
2026-04-22 20:30 21.46196 -157.24409 12023 ft 380 kts 239°
2026-04-22 20:30 21.44780 -157.26814 12019 ft 381 kts 239°
2026-04-22 20:30 21.43381 -157.29202 12022 ft 379 kts 240°
2026-04-22 20:30 21.42336 -157.31810 12021 ft 376 kts 258°
2026-04-22 20:31 21.42036 -157.34561 12022 ft 374 kts 270°
2026-04-22 20:31 21.42059 -157.37331 12020 ft 373 kts 273°
2026-04-22 20:31 21.42105 -157.40129 12017 ft 374 kts 272°
2026-04-22 20:31 21.42163 -157.42908 12017 ft 374 kts 273°
2026-04-22 20:32 21.42016 -157.45726 12016 ft 376 kts 263°
2026-04-22 20:32 21.41460 -157.48434 12019 ft 377 kts 256°
2026-04-22 20:32 21.40564 -157.51096 12019 ft 374 kts 248°
2026-04-22 20:32 21.39365 -157.53507 11938 ft 358 kts 240°
2026-04-22 20:33 21.37989 -157.55655 11752 ft 343 kts 234°
2026-04-22 20:33 21.36544 -157.57613 11625 ft 329 kts 232°
2026-04-22 20:33 21.35095 -157.59454 11524 ft 314 kts 231°
2026-04-22 20:33 21.33708 -157.61183 11453 ft 300 kts 231°
2026-04-22 20:34 21.32374 -157.62851 11401 ft 285 kts 231°
2026-04-22 20:34 21.31125 -157.64423 11321 ft 273 kts 231°
2026-04-22 20:34 21.29905 -157.65970 11109 ft 268 kts 231°
2026-04-22 20:34 21.28679 -157.67532 10900 ft 278 kts 231°
2026-04-22 20:35 21.27434 -157.69113 10678 ft 272 kts 232°
2026-04-22 20:35 21.26412 -157.70776 10458 ft 264 kts 246°
2026-04-22 20:35 21.25904 -157.72618 10244 ft 256 kts 261°
2026-04-22 20:35 21.25613 -157.74493 10030 ft 251 kts 262°
2026-04-22 20:36 21.25328 -157.76312 9814 ft 249 kts 261°
2026-04-22 20:36 21.25001 -157.78137 9600 ft 248 kts 260°
2026-04-22 20:36 21.24651 -157.79944 9381 ft 247 kts 259°
2026-04-22 20:36 21.24301 -157.81732 9166 ft 246 kts 259°
2026-04-22 20:37 21.23952 -157.83539 8948 ft 245 kts 260°
2026-04-22 20:37 21.23634 -157.85326 8734 ft 245 kts 261°
2026-04-22 20:37 21.23368 -157.87125 8517 ft 244 kts 263°
2026-04-22 20:37 21.23163 -157.89053 8311 ft 276 kts 266°
2026-04-22 20:38 21.23035 -157.91127 8038 ft 280 kts 269°
2026-04-22 20:38 21.23005 -157.93193 7749 ft 275 kts 271°
2026-04-22 20:38 21.23074 -157.95210 7462 ft 270 kts 275°
2026-04-22 20:38 21.23249 -157.97195 7188 ft 265 kts 278°
2026-04-22 20:39 21.23529 -157.99101 7110 ft 252 kts 282°
2026-04-22 20:39 21.23911 -158.00896 7081 ft 238 kts 285°
2026-04-22 20:39 21.24037 -158.02622 6825 ft 238 kts 258°
2026-04-22 20:39 21.23197 -158.04137 6525 ft 240 kts 219°
2026-04-22 20:40 21.21669 -158.04765 6251 ft 238 kts 183°
2026-04-22 20:40 21.20010 -158.04733 5958 ft 238 kts 183°
2026-04-22 20:40 21.18452 -158.05267 5684 ft 236 kts 211°
2026-04-22 20:40 21.17090 -158.06239 5392 ft 234 kts 215°
2026-04-22 20:41 21.15757 -158.07243 5140 ft 233 kts 215°
2026-04-22 20:41 21.14422 -158.08249 4901 ft 235 kts 215°
2026-04-22 20:41 21.13084 -158.09259 4662 ft 234 kts 215°
2026-04-22 20:41 21.11758 -158.10231 4425 ft 233 kts 216°
2026-04-22 20:42 21.10748 -158.11560 4153 ft 233 kts 250°
2026-04-22 20:42 21.10716 -158.13254 3796 ft 231 kts 291°
2026-04-22 20:42 21.11690 -158.14540 3439 ft 227 kts 331°
2026-04-22 20:42 21.13207 -158.14845 3081 ft 224 kts
2026-04-22 20:43 21.14698 -158.14398 2912 ft 214 kts 20°
2026-04-22 20:43 21.16050 -158.13913 2904 ft 199 kts 19°
2026-04-22 20:43 21.17346 -158.13457 2904 ft 185 kts 19°
2026-04-22 20:43 21.18510 -158.13036 2907 ft 177 kts 24°
2026-04-22 20:44 21.19508 -158.12254 2912 ft 177 kts 48°
2026-04-22 20:44 21.20301 -158.11250 2909 ft 176 kts 52°
2026-04-22 20:44 21.21029 -158.10175 2857 ft 176 kts 55°
2026-04-22 20:44 21.21726 -158.09096 2906 ft 175 kts 56°
2026-04-22 20:45 21.22358 -158.07965 2895 ft 175 kts 61°
2026-04-22 20:45 21.22940 -158.06824 2894 ft 176 kts 61°
2026-04-22 20:45 21.23530 -158.05664 2894 ft 174 kts 61°
2026-04-22 20:45 21.24107 -158.04533 2895 ft 175 kts 61°
2026-04-22 20:46 21.25277 -158.02241 2893 ft 174 kts 61°
2026-04-22 20:46 21.25854 -158.01106 2905 ft 175 kts 61°
2026-04-22 20:46 21.26451 -157.99921 2481 ft 186 kts 62°
2026-04-22 20:47 21.27206 -157.98782 2078 ft 184 kts 46°
2026-04-22 20:47 21.28015 -157.97790 1856 ft 172 kts 57°
2026-04-22 20:47 21.28609 -157.96683 1518 ft 170 kts 60°
2026-04-22 20:47 21.29314 -157.95668 1098 ft 175 kts 49°
2026-04-22 20:48 21.30069 -157.94653 773 ft 173 kts 58°
2026-04-22 20:48 21.30774 -157.93604 395 ft 177 kts 54°
2026-04-22 20:48 21.31507 -157.92558 101 ft 174 kts 55°
2026-04-22 20:48 21.32210 -157.91554 21 ft 163 kts 55°
2026-04-22 20:49 21.32722 -157.90831 30 ft 59 kts 52°
2026-04-22 20:49 21.32787 -157.90738 29 ft 0 kts 52°
2026-04-22 20:49 21.32786 -157.90739 29 ft 0 kts 43°
2026-04-22 20:50 21.32788 -157.90736 29 ft 4 kts 52°
2026-04-22 20:50 21.32855 -157.90654 30 ft 15 kts 33°
2026-04-22 20:51 21.32906 -157.90659 30 ft 0 kts 326°
2026-04-22 20:51 21.32935 -157.90680 30 ft 12 kts 324°
2026-04-22 20:51 21.33036 -157.90770 31 ft 22 kts 289°
2026-04-22 20:51 21.32994 -157.90932 35 ft 15 kts 232°